Time,TemperatureF,DewpointF,PressureIn,WindDirection,WindDirectionDegrees,WindSpeedMPH,WindSpeedGustMPH,Humidity,HourlyPrecipIn,Conditions,Clouds,dailyrainin,SolarRadiationWatts/m^2,SoftwareType,DateUTC
2013-04-30 00:01:00,49.0,33.0,-100.00,ENE,63,0.0,4.0,54,-99.99,,,0.00,0.000000,,2013-04-30 07:01:00,
2013-04-30 01:32:00,46.0,32.0,-100.00,East,88,0.0,0.0,58,-99.99,,,0.00,0.000000,,2013-04-30 08:32:00,
2013-04-30 01:42:00,46.0,32.0,-100.00,East,88,0.0,0.0,58,-99.99,,,0.00,0.000000,,2013-04-30 08:42:00,
2013-04-30 01:52:00,46.0,32.0,-100.00,East,88,0.0,0.0,58,-99.99,,,0.00,0.000000,,2013-04-30 08:52:00,
2013-04-30 02:01:00,46.0,32.0,-100.00,East,88,0.0,0.0,58,-99.99,,,0.00,0.000000,,2013-04-30 09:01:00,
2013-04-30 02:02:00,43.0,31.0,-100.00,East,90,0.0,3.0,62,0.00,,,0.00,0.000000,,2013-04-30 09:02:00,
2013-04-30 02:22:00,43.0,31.0,-100.00,East,90,0.0,3.0,62,0.00,,,0.00,0.000000,,2013-04-30 09:22:00,
2013-04-30 02:33:00,43.0,31.0,-100.00,East,90,0.0,3.0,62,0.00,,,0.00,0.000000,,2013-04-30 09:33:00,
2013-04-30 02:52:00,43.0,31.0,-100.00,East,90,0.0,3.0,62,0.00,,,0.00,0.000000,,2013-04-30 09:52:00,
2013-04-30 04:21:00,42.0,31.0,-100.00,ESE,103,0.0,4.0,66,-99.99,,,-99.99,0.000000,,2013-04-30 11:21:00,
2013-04-30 04:32:00,42.0,31.0,-100.00,ESE,103,0.0,4.0,66,-99.99,,,-99.99,0.000000,,2013-04-30 11:32:00,
2013-04-30 09:02:00,64.0,42.0,-100.00,South,170,0.0,4.0,45,-99.99,,,0.00,499.000000,,2013-04-30 16:02:00,
2013-04-30 09:23:00,64.0,42.0,-100.00,South,170,0.0,4.0,45,-99.99,,,0.00,499.000000,,2013-04-30 16:23:00,
2013-04-30 09:33:00,64.0,42.0,-100.00,South,170,0.0,4.0,45,-99.99,,,0.00,499.000000,,2013-04-30 16:33:00,
2013-04-30 09:42:00,64.0,42.0,-100.00,South,170,0.0,4.0,45,-99.99,,,0.00,499.000000,,2013-04-30 16:42:00,
2013-04-30 09:52:00,64.0,42.0,-100.00,South,170,0.0,4.0,45,-99.99,,,0.00,499.000000,,2013-04-30 16:52:00,
2013-04-30 11:32:00,70.0,38.0,-100.00,NW,311,3.0,9.0,31,-99.99,,,0.00,586.000000,,2013-04-30 18:32:00,
2013-04-30 11:42:00,70.0,38.0,-100.00,NW,311,3.0,9.0,31,-99.99,,,0.00,586.000000,,2013-04-30 18:42:00,
2013-04-30 11:52:00,70.0,38.0,-100.00,NW,311,3.0,9.0,31,-99.99,,,0.00,586.000000,,2013-04-30 18:52:00,
2013-04-30 12:01:00,70.0,38.0,-100.00,NW,311,3.0,9.0,31,-99.99,,,0.00,586.000000,,2013-04-30 19:01:00,
2013-04-30 12:22:00,70.0,37.0,-100.00,WNW,286,4.0,11.0,30,0.00,,,0.00,957.000000,,2013-04-30 19:22:00,
2013-04-30 12:32:00,70.0,37.0,-100.00,WNW,286,4.0,11.0,30,0.00,,,0.00,957.000000,,2013-04-30 19:32:00,
2013-04-30 12:42:00,70.0,37.0,-100.00,WNW,286,4.0,11.0,30,0.00,,,0.00,957.000000,,2013-04-30 19:42:00,
2013-04-30 12:52:00,70.0,37.0,-100.00,WNW,286,4.0,11.0,30,0.00,,,0.00,957.000000,,2013-04-30 19:52:00,
2013-04-30 13:01:00,70.0,37.0,-100.00,WNW,286,4.0,11.0,30,0.00,,,0.00,957.000000,,2013-04-30 20:01:00,
2013-04-30 13:32:00,70.0,37.0,-100.00,North,11,3.0,11.0,30,0.00,,,0.00,936.000000,,2013-04-30 20:32:00,
2013-04-30 13:42:00,70.0,37.0,-100.00,North,11,3.0,11.0,30,0.00,,,0.00,936.000000,,2013-04-30 20:42:00,
2013-04-30 13:52:00,70.0,37.0,-100.00,North,11,3.0,11.0,30,0.00,,,0.00,936.000000,,2013-04-30 20:52:00,
2013-04-30 14:01:00,70.0,37.0,-100.00,North,11,3.0,11.0,30,0.00,,,0.00,936.000000,,2013-04-30 21:01:00,
2013-04-30 14:02:00,76.0,39.0,-100.00,ESE,121,3.0,10.0,26,0.00,,,0.00,1048.000000,,2013-04-30 21:02:00,
2013-04-30 14:32:00,76.0,39.0,-100.00,ESE,121,3.0,10.0,26,0.00,,,0.00,1048.000000,,2013-04-30 21:32:00,
2013-04-30 14:42:00,76.0,39.0,-100.00,ESE,121,3.0,10.0,26,0.00,,,0.00,1048.000000,,2013-04-30 21:42:00,
2013-04-30 14:53:00,76.0,39.0,-100.00,ESE,121,3.0,10.0,26,0.00,,,0.00,1048.000000,,2013-04-30 21:53:00,
2013-04-30 15:02:00,75.0,38.0,-100.00,WNW,303,4.0,10.0,26,0.00,,,0.00,1015.000000,,2013-04-30 22:02:00,
2013-04-30 15:23:00,75.0,38.0,-100.00,WNW,303,4.0,10.0,26,0.00,,,0.00,1015.000000,,2013-04-30 22:23:00,
2013-04-30 15:33:00,75.0,38.0,-100.00,WNW,303,4.0,10.0,26,0.00,,,0.00,1015.000000,,2013-04-30 22:33:00,
2013-04-30 15:42:00,75.0,38.0,-100.00,WNW,303,4.0,10.0,26,0.00,,,0.00,1015.000000,,2013-04-30 22:42:00,
2013-04-30 15:53:00,75.0,38.0,-100.00,WNW,303,4.0,10.0,26,0.00,,,0.00,1015.000000,,2013-04-30 22:53:00,
2013-04-30 16:22:00,70.0,38.0,-100.00,NE,43,4.0,11.0,31,0.00,,,0.00,733.000000,,2013-04-30 23:22:00,
2013-04-30 16:32:00,70.0,38.0,-100.00,NE,43,4.0,11.0,31,0.00,,,0.00,733.000000,,2013-04-30 23:32:00,
2013-04-30 16:42:00,70.0,38.0,-100.00,NE,43,4.0,11.0,31,0.00,,,0.00,733.000000,,2013-04-30 23:42:00,
2013-04-30 16:52:00,70.0,38.0,-100.00,NE,43,4.0,11.0,31,0.00,,,0.00,733.000000,,2013-04-30 23:52:00,
2013-04-30 17:01:00,70.0,38.0,-100.00,NE,43,4.0,11.0,31,0.00,,,0.00,733.000000,,2013-05-01 00:01:00,
2013-04-30 17:22:00,68.0,39.0,-100.00,NW,310,4.0,9.0,35,0.00,,,0.00,607.000000,,2013-05-01 00:22:00,
2013-04-30 17:32:00,68.0,39.0,-100.00,NW,310,4.0,9.0,35,0.00,,,0.00,607.000000,,2013-05-01 00:32:00,
2013-04-30 17:42:00,68.0,39.0,-100.00,NW,310,4.0,9.0,35,0.00,,,0.00,607.000000,,2013-05-01 00:42:00,
2013-04-30 17:52:00,68.0,39.0,-100.00,NW,310,4.0,9.0,35,0.00,,,0.00,607.000000,,2013-05-01 00:52:00,
2013-04-30 18:01:00,68.0,39.0,-100.00,NW,310,4.0,9.0,35,0.00,,,0.00,607.000000,,2013-05-01 01:01:00,
2013-04-30 18:32:00,66.0,38.0,-100.00,WNW,297,2.0,9.0,35,0.00,,,-99.99,309.000000,,2013-05-01 01:32:00,
2013-04-30 18:42:00,66.0,38.0,-100.00,WNW,297,2.0,9.0,35,0.00,,,-99.99,309.000000,,2013-05-01 01:42:00,
2013-04-30 18:52:00,66.0,38.0,-100.00,WNW,297,2.0,9.0,35,0.00,,,-99.99,309.000000,,2013-05-01 01:52:00,
2013-04-30 19:01:00,66.0,38.0,-100.00,WNW,297,2.0,9.0,35,0.00,,,-99.99,309.000000,,2013-05-01 02:01:00,
2013-04-30 19:22:00,63.0,36.0,-100.00,SSE,157,0.0,8.0,36,0.00,,,0.00,126.000000,,2013-05-01 02:22:00,
2013-04-30 19:32:00,63.0,36.0,-100.00,SSE,157,0.0,8.0,36,0.00,,,0.00,126.000000,,2013-05-01 02:32:00,
2013-04-30 19:42:00,63.0,36.0,-100.00,SSE,157,0.0,8.0,36,0.00,,,0.00,126.000000,,2013-05-01 02:42:00,
2013-04-30 19:52:00,63.0,36.0,-100.00,SSE,157,0.0,8.0,36,0.00,,,0.00,126.000000,,2013-05-01 02:52:00,
2013-04-30 20:01:00,63.0,36.0,-100.00,SSE,157,0.0,8.0,36,0.00,,,0.00,126.000000,,2013-05-01 03:01:00,
2013-04-30 20:02:00,57.0,34.0,-100.00,NE,49,0.0,4.0,42,0.00,,,-99.99,16.000000,,2013-05-01 03:02:00,
2013-04-30 20:22:00,57.0,34.0,-100.00,NE,49,0.0,4.0,42,0.00,,,-99.99,16.000000,,2013-05-01 03:22:00,
2013-04-30 20:33:00,57.0,34.0,-100.00,NE,49,0.0,4.0,42,0.00,,,-99.99,16.000000,,2013-05-01 03:33:00,
2013-04-30 20:43:00,57.0,34.0,-100.00,NE,49,0.0,4.0,42,0.00,,,-99.99,16.000000,,2013-05-01 03:43:00,
2013-04-30 20:53:00,57.0,34.0,-100.00,NE,49,0.0,4.0,42,0.00,,,-99.99,16.000000,,2013-05-01 03:53:00,
2013-04-30 21:02:00,51.0,34.0,-100.00,SSE,152,1.0,3.0,52,0.00,,,-99.99,0.000000,,2013-05-01 04:02:00,
2013-04-30 21:22:00,51.0,34.0,-100.00,SSE,152,1.0,3.0,52,0.00,,,-99.99,0.000000,,2013-05-01 04:22:00,
2013-04-30 21:32:00,51.0,34.0,-100.00,SSE,152,1.0,3.0,52,0.00,,,-99.99,0.000000,,2013-05-01 04:32:00,
2013-04-30 21:43:00,51.0,34.0,-100.00,SSE,152,1.0,3.0,52,0.00,,,-99.99,0.000000,,2013-05-01 04:43:00,
2013-04-30 21:52:00,51.0,34.0,-100.00,SSE,152,1.0,3.0,52,0.00,,,-99.99,0.000000,,2013-05-01 04:52:00,
2013-04-30 22:32:00,52.0,23.0,-100.00,SSE,147,3.0,10.0,32,0.00,,,-99.99,0.000000,,2013-05-01 05:32:00,
2013-04-30 22:42:00,52.0,23.0,-100.00,SSE,147,3.0,10.0,32,0.00,,,-99.99,0.000000,,2013-05-01 05:42:00,
2013-04-30 22:52:00,52.0,23.0,-100.00,SSE,147,3.0,10.0,32,0.00,,,-99.99,0.000000,,2013-05-01 05:52:00,
2013-04-30 23:01:00,52.0,23.0,-100.00,SSE,147,3.0,10.0,32,0.00,,,-99.99,0.000000,,2013-05-01 06:01:00,
2013-04-30 23:22:00,54.0,4.0,-100.00,SSE,153,8.0,16.0,13,0.00,,,0.00,0.000000,,2013-05-01 06:22:00,
2013-04-30 23:32:00,54.0,4.0,-100.00,SSE,153,8.0,16.0,13,0.00,,,0.00,0.000000,,2013-05-01 06:32:00,
2013-04-30 23:42:00,54.0,4.0,-100.00,SSE,153,8.0,16.0,13,0.00,,,0.00,0.000000,,2013-05-01 06:42:00,
2013-04-30 23:52:00,54.0,4.0,-100.00,SSE,153,8.0,16.0,13,0.00,,,0.00,0.000000,,2013-05-01 06:52:00,